Location: Bambrugge
(50.9212°N, 3.9299°E)
Time: 18:55:03
(UTC+00:00)

Helios 1A Rocket - Pass Details

Date: 20 August 2024
Orbit: 512 x 533 km, 98.3° (Epoch: 07 September)

Event Time Altitude Azimuth Distance (km) Brightness Sun altitude
Exits shadow 00:31:10 32° 72° (ENE) 953 4.2 -26.0°
Maximum altitude 00:31:20 32° 66° (ENE) 950 4.3 -26.0°
Drops below altitude 10° 00:34:49 10° 3° (N) 1,808 6.4 -25.9°
Sets 00:37:05 0° 353° (N) 2,700 7.5 -25.8°
